Indianapolis, IN

12:49 AM EDT on October 24, 2019 (GMT -0400)
Indianapolis International

Weather History for KIND - June, 2019

Change the Weather History Date:

Tuesday, June 11, 2019

  Actual Average Record
Temperature  
Mean Temperature 65 °F 71 °F  
Max Temperature 78 °F 81 °F 96 °F (1933)
Min Temperature 52 °F 61 °F 41 °F (1980)
Degree Days  
Heating Degree Days 0 1  
Month to date heating degree days 0 13  
Since 1 June heating degree days 0 13  
Since 1 July heating degree days 5376 5375  
Cooling Degree Days 0 7  
Month to date cooling degree days 58 61  
Year to date cooling degree days 169 145  
Since 1 June cooling degree days 58 61  
Growing Degree Days 15 (Base 50)    
Moisture  
Dew Point 47 °F    
Average Humidity 64    
Maximum Humidity 96    
Minimum Humidity 31    
Precipitation  
Precipitation 0.00 in 0.14 in 2.90 in (2009)
Month to date precipitation 1.23 1.58  
Year to date precipitation 22.87 18.98  
Snow  
Snow 0.00 in 0.00 in 0.00 in ()
Month to date snowfall 0.0 0.0  
Since 1 June snowfall 0.0 0.0  
Since 1 July snowfall 19.4 25.9  
Snow Depth 0.00 in    
Sea Level Pressure  
Sea Level Pressure 30.17 in    
Wind  
Wind Speed 5 mph (South)    
Max Wind Speed 13 mph    
Max Gust Speed 17 mph    
Visibility 10 miles    
Events      
T = Trace of Precipitation, MM = Missing Value Source: NWS Daily Summary

Daily Weather History Graph

Daily Weather History Graph

Search for Another Location

Airport or City:

Astronomy

Jun. 11, 2019 Rise Set
Actual Time 6:16 AM EDT 9:13 PM EDT
Civil Twilight 5:44 AM EDT 9:45 PM EDT
Nautical Twilight 5:03 AM EDT 10:26 PM EDT
Astronomical Twilight 4:15 AM EDT 11:14 PM EDT
Moon 3:12 PM EDT (6/11) 2:59 AM EDT (6/11)
Length of Visible Light 16h 01m
Length of Day
14h 56m
Waxing Gibbous, 66% of the Moon is Illuminated
Jun 11
Waxing Gibbous
Jun 17
Full
Jun 25
Last Quarter
Jul 2
New
Jul 9
First Quarter

Hourly Weather History & Observations

Time (EDT) Temp. Dew Point Humidity Pressure Visibility Wind Dir Wind Speed Gust Speed Precip Events Conditions
12:54 AM 57.9 °F 50.0 °F 75% 30.19 in 10.0 mi North 3.5 mph - N/A   Clear
1:54 AM 55.9 °F 50.0 °F 80% 30.19 in 10.0 mi Calm Calm - N/A   Clear
2:54 AM 55.9 °F 48.9 °F 77% 30.18 in 10.0 mi Calm Calm - N/A   Clear
3:54 AM 53.1 °F 48.9 °F 86% 30.19 in 10.0 mi West 3.5 mph - N/A   Clear
4:54 AM 53.1 °F 50.0 °F 89% 30.19 in 10.0 mi West 3.5 mph - N/A   Clear
5:54 AM 52.0 °F 50.0 °F 93% 30.21 in 10.0 mi Calm Calm - N/A   Clear
6:54 AM 52.0 °F 48.9 °F 89% 30.23 in 10.0 mi WSW 4.6 mph - N/A   Partly Cloudy
7:54 AM 57.9 °F 52.0 °F 81% 30.24 in 10.0 mi Calm Calm - N/A   Partly Cloudy
8:54 AM 63.0 °F 52.0 °F 67% 30.25 in 10.0 mi WSW 4.6 mph - N/A   Partly Cloudy
9:54 AM 68.0 °F 46.9 °F 47% 30.24 in 10.0 mi South 3.5 mph - N/A   Mostly Cloudy
10:54 AM 69.1 °F 48.0 °F 47% 30.23 in 10.0 mi SSE 5.8 mph - N/A   Mostly Cloudy
11:54 AM 71.1 °F 48.0 °F 44% 30.22 in 10.0 mi SSW 5.8 mph - N/A   Mostly Cloudy
12:54 PM 73.9 °F 44.1 °F 34% 30.20 in 10.0 mi Variable 5.8 mph - N/A   Mostly Cloudy
1:54 PM 75.0 °F 43.0 °F 32% 30.19 in 10.0 mi Variable 3.5 mph - N/A   Mostly Cloudy
2:54 PM 77.0 °F 45.0 °F 32% 30.16 in 10.0 mi NE 3.5 mph - N/A   Mostly Cloudy
3:54 PM 75.9 °F 44.1 °F 32% 30.15 in 10.0 mi East 6.9 mph - N/A   Mostly Cloudy
4:54 PM 77.0 °F 44.1 °F 31% 30.13 in 10.0 mi NE 4.6 mph - N/A   Mostly Cloudy
5:54 PM 75.9 °F 43.0 °F 31% 30.12 in 10.0 mi SE 10.4 mph - N/A   Scattered Clouds
6:54 PM 75.0 °F 45.0 °F 34% 30.10 in 10.0 mi SE 9.2 mph - N/A   Scattered Clouds
7:54 PM 73.0 °F 45.0 °F 37% 30.09 in 10.0 mi SE 6.9 mph - N/A   Scattered Clouds
8:54 PM 70.0 °F 46.0 °F 42% 30.09 in 10.0 mi SE 5.8 mph - N/A   Scattered Clouds
9:54 PM 68.0 °F 48.0 °F 49% 30.09 in 10.0 mi South 5.8 mph - N/A   Partly Cloudy
10:54 PM 66.0 °F 48.0 °F 52% 30.10 in 10.0 mi South 9.2 mph - N/A   Partly Cloudy
11:54 PM 64.0 °F 48.0 °F 56% 30.09 in 10.0 mi SSW 4.6 mph - N/A   Partly Cloudy